カタログに戻る

STARLINK-36063

運用中通信VLEO
NORAD 66606·PAYLOAD·🇺🇸 United States

打ち上げ Nov 22, 2025 から Cape Canaveral Space Force Station

Loading…

次のパス (今後24時間)

TLE

最新Source: CelesTrak SupGP

元期: Sep 15, 2026, 02:39 UTC

1 66606C 25270U   26258.11090278 -.00015500  00000+0 -56137-3 0  2586
2 66606  43.0005  66.2435 0001436 272.3183 224.5304 15.27587138    12

AllMySatでSTARLINK-36063をリアルタイム追跡

Download on the App Store